Location: Caltech
(34.1382°N, 118.1253°W)
Time: 00:57:48
(UTC-08:00)

UOSAT-12 - Visible Passes

Search period start: 25 February 2017 00:00
Search period end: 07 March 2017 00:00
Orbit: 610 x 644 km, 64.6° (Epoch: 25 February)

Date Brightness Start Highest point End Pass type
(mag) Time Alt. Az. Time Alt. Az. Time Alt. Az.
28 Feb 10.2 05:02:21 10° NE 05:03:06 10° NE 05:03:51 10° NE visible
01 Mar 9.6 05:19:50 10° N 05:23:22 21° NE 05:26:54 10° E visible
02 Mar 8.3 05:38:58 10° NNW 05:43:26 45° ENE 05:47:51 10° SE visible
03 Mar 10.1 04:20:48 10° NNE 04:22:40 12° NE 04:24:32 10° ENE visible
04 Mar 9.3 04:39:04 10° N 04:42:53 25° NE 04:46:41 10° ESE visible
04 Mar 8.8 18:47:45 10° SE 18:49:36 15° ESE 18:49:36 15° ESE visible
04 Mar 9.4 20:25:49 10° SW 20:27:02 18° WSW 20:27:02 18° WSW visible
05 Mar 7.9 04:58:20 10° NNW 05:02:54 54° ENE 05:07:24 10° SE visible
05 Mar 7.5 19:05:50 10° S 19:09:58 37° ESE 19:11:05 32° E visible
05 Mar 9.8 20:46:49 10° W 20:48:31 17° W 20:48:31 17° W visible
06 Mar 10.0 03:39:43 10° NNE 03:42:13 14° NE 03:44:42 10° E visible
06 Mar 7.1 05:18:08 10° NW 05:22:43 63° WSW 05:27:16 10° SSE visible
06 Mar 7.0 19:25:11 10° SSW 19:29:41 86° WNW 19:32:32 22° NNE visible
